Dewpoint
49 50 48 49 49 49 48 48 48 48 48 48 48 48 48 49 50 50 50 49 48 47 46 46 45 44 43 43 43 42 42 43 44 42 40 41 39 39 36 35 37 37
50 51 53 52 51 51 52 50 49 48 48 48 48 49 49 50 50 50 48 47 46 45 45 44 44 43 42 41 41 41 40 40 39 40 39 36 37 37 36 36 35 37
50 50 50 50 50 49 49 49 50 49 49 49 49 49 50 51 48 48 47 46 45 44 44 43 43 43 42 41 40 39 38 38 38 38 37 35 36 35 35 35 35 34
50 50 49 49 50 50 49 49 49 49 49 49 49 50 50 49 47 45 45 45 43 43 43 42 42 41 40 39 39 38 37 36 36 37 35 34 34 33 34 34 34 33
50 50 50 50 50 51 51 49 49 49 49 49 50 49 48 46 44 43 42 41 41 40 40 40 40 40 40 39 37 37 37 34 34 34 33 32 33 33 33 33 32 32
51 51 51 50 51 50 50 48 50 49 48 49 48 48 45 43 41 40 39 39 38 38 37 38 38 39 38 37 36 35 35 34 33 32 31 31 32 31 32 32 32 32
50 51 50 51 50 50 50 48 49 51 49 48 46 44 42 40 39 38 37 37 36 37 35 36 36 37 38 37 35 34 33 33 31 31 30 31 32 31 31 31 32 32
50 51 50 50 50 49 50 49 49 49 49 45 42 41 39 37 36 37 36 36 35 34 35 35 34 34 35 35 33 33 33 32 32 31 31 31 32 31 31 32 32 32
52 51 51 50 49 49 49 49 49 48 46 43 40 39 37 36 35 34 34 33 33 34 34 34 34 33 34 33 32 32 31 32 32 31 31 31 31 31 30 31 32 33
53 53 50 49 49 49 48 48 48 46 43 40 38 38 36 36 34 33 33 33 33 33 33 34 34 33 32 32 32 32 31 31 31 31 31 31 31 30 31 31 31 32
52 50 49 49 49 48 48 48 47 45 41 38 37 37 35 35 35 34 33 33 34 33 33 34 34 32 31 31 32 33 32 32 31 31 32 31 31 31 33 31 31 31
51 49 49 49 48 47 47 47 45 42 40 38 36 35 36 35 35 35 34 33 33 34 34 35 35 33 31 31 31 32 32 32 32 32 32 31 31 31 31 31 31 30
50 49 49 48 47 47 47 45 42 40 38 36 36 35 34 34 34 34 35 34 34 35 35 35 36 36 33 31 31 32 32 31 32 32 31 32 31 30 30 30 30 30
49 48 47 47 46 46 44 42 40 38 37 36 35 34 33 32 32 33 34 33 34 35 35 36 35 36 36 33 31 32 32 31 32 32 31 31 31 30 31 30 30 30
48 47 46 46 45 44 42 40 38 37 37 36 35 35 34 33 33 32 32 32 33 34 35 35 36 36 36 36 34 31 31 31 31 31 31 30 30 30 30 30 29 30
46 45 43 44 43 42 40 38 37 36 35 35 34 34 34 34 33 33 32 32 32 33 34 35 35 36 36 36 36 34 31 31 32 32 31 30 30 30 29 29 29 29
43 42 42 42 42 41 39 37 36 36 35 35 35 35 35 34 33 32 33 33 33 33 34 34 35 35 35 34 33 34 33 32 31 31 31 30 30 29 29 28 29 28
42 41 41 41 41 40 38 37 36 36 35 34 35 35 35 34 34 33 33 33 33 33 34 34 34 35 35 34 33 32 33 32 32 31 31 30 30 29 28 28 28 29
40 39 39 40 40 40 38 37 36 35 35 34 34 35 34 33 32 33 32 33 33 33 33 34 33 34 34 34 33 33 32 32 30 31 31 30 30 29 29 28 28 29
38 38 38 38 39 39 38 37 36 35 36 36 35 34 34 33 34 33 33 33 32 32 33 33 33 33 34 34 34 33 32 31 30 31 30 30 29 29 30 29 27 28
36 36 36 37 37 37 38 37 37 36 35 35 35 34 34 33 33 33 33 33 32 33 33 33 33 33 34 34 34 33 32 31 31 30 30 30 29 29 29 29 27 28
35 35 35 35 35 36 36 36 36 36 36 36 36 36 36 36 35 34 33 33 33 32 32 32 34 33 34 34 35 34 31 30 30 30 30 29 28 29 28 28 27 28
34 33 34 33 34 34 34 35 35 35 37 37 35 35 35 34 34 34 34 32 31 30 30 31 31 33 34 34 34 35 33 30 30 29 29 29 28 29 28 27 27 26
33 33 33 33 33 33 33 34 34 35 36 37 34 34 34 35 35 36 36 36 32 31 31 29 30 32 33 34 33 33 32 30 30 29 29 29 28 29 27 26 26 30
33 32 32 32 32 32 33 33 33 35 36 35 34 34 35 35 35 32 31 31 33 33 33 30 30 32 32 33 32 32 31 31 29 28 28 28 27 28 26 25 25 27
33 34 33 32 31 32 33 33 35 33 33 33 34 34 34 33 33 31 30 30 30 28 30 31 31 31 32 33 32 31 31 30 29 28 27 27 26 27 25 25 25 25